Time,TemperatureF,DewpointF,PressureIn,WindDirection,WindDirectionDegrees,WindSpeedMPH,WindSpeedGustMPH,Humidity,HourlyPrecipIn,Conditions,Clouds,dailyrainin,SolarRadiationWatts/m^2,SoftwareType,DateUTC
2013-02-20 00:00:00,15.0,11.0,-100.00,WNW,292,7.0,-999.0,85,-99.99,,,-99.99,0.000000,,2013-02-20 05:00:00,
2013-02-20 00:43:00,15.0,11.0,-100.00,WNW,292,7.0,-999.0,85,-99.99,,,-99.99,0.000000,,2013-02-20 05:43:00,
2013-02-20 00:52:00,15.0,11.0,-100.00,WNW,292,7.0,-999.0,85,-99.99,,,-99.99,0.000000,,2013-02-20 05:52:00,
2013-02-20 03:00:00,14.0,11.0,-100.00,West,270,4.0,-999.0,88,-99.99,,,-99.99,0.000000,,2013-02-20 08:00:00,
2013-02-20 03:42:00,14.0,11.0,-100.00,West,270,4.0,-999.0,88,-99.99,,,-99.99,0.000000,,2013-02-20 08:42:00,
2013-02-20 03:52:00,14.0,11.0,-100.00,West,270,4.0,-999.0,88,-99.99,,,-99.99,0.000000,,2013-02-20 08:52:00,
2013-02-20 06:00:00,14.0,12.0,-100.00,WNW,292,7.0,-999.0,92,-99.99,,,-99.99,0.000000,,2013-02-20 11:00:00,
2013-02-20 06:42:00,14.0,12.0,-100.00,WNW,292,7.0,-999.0,92,-99.99,,,-99.99,0.000000,,2013-02-20 11:42:00,
2013-02-20 06:52:00,14.0,12.0,-100.00,WNW,292,7.0,-999.0,92,-99.99,,,-99.99,0.000000,,2013-02-20 11:52:00,
2013-02-20 09:00:00,15.0,10.0,-100.00,WNW,292,9.0,-999.0,79,-99.99,,,-99.99,44.080002,,2013-02-20 14:00:00,
2013-02-20 09:42:00,15.0,10.0,-100.00,WNW,292,9.0,-999.0,79,-99.99,,,-99.99,44.080002,,2013-02-20 14:42:00,
2013-02-20 09:52:00,15.0,10.0,-100.00,WNW,292,9.0,-999.0,79,-99.99,,,-99.99,44.080002,,2013-02-20 14:52:00,
2013-02-20 12:00:00,18.0,11.0,-100.00,WNW,292,9.0,-999.0,72,-99.99,,,-99.99,255.199997,,2013-02-20 17:00:00,
2013-02-20 12:42:00,18.0,11.0,-100.00,WNW,292,9.0,-999.0,72,-99.99,,,-99.99,255.199997,,2013-02-20 17:42:00,
2013-02-20 12:52:00,18.0,11.0,-100.00,WNW,292,9.0,-999.0,72,-99.99,,,-99.99,255.199997,,2013-02-20 17:52:00,
2013-02-20 15:00:00,22.0,14.0,-100.00,WNW,292,9.0,-999.0,71,-99.99,,,-99.99,250.559998,,2013-02-20 20:00:00,
2013-02-20 15:41:00,22.0,14.0,-100.00,WNW,292,9.0,-999.0,71,-99.99,,,-99.99,250.559998,,2013-02-20 20:41:00,
2013-02-20 15:52:00,22.0,14.0,-100.00,WNW,292,9.0,-999.0,71,-99.99,,,-99.99,250.559998,,2013-02-20 20:52:00,
2013-02-20 18:00:00,21.0,14.0,-100.00,WNW,292,9.0,-999.0,75,-99.99,,,-99.99,32.480000,,2013-02-20 23:00:00,
2013-02-20 18:43:00,21.0,14.0,-100.00,WNW,292,9.0,-999.0,75,-99.99,,,-99.99,32.480000,,2013-02-20 23:43:00,
2013-02-20 18:53:00,21.0,14.0,-100.00,WNW,292,9.0,-999.0,75,-99.99,,,-99.99,32.480000,,2013-02-20 23:53:00,
2013-02-20 21:00:00,21.0,15.0,-100.00,West,270,9.0,-999.0,77,-99.99,,,-99.99,0.000000,,2013-02-21 02:00:00,